Regional Weather Roundup
Issued by NWS

Home | Current Version | Previous Version | Graphics & Text | Print | Product List | Glossary On
Versions: 1 2 3 4 5 6 7 8 9 10 11 12 13 14 15 16 17 18 19 20 21 22 23 24 25 26 27 28 29 30 31 32 33 34 35 36 37 38 39 40 41 42 43 44 45 46 47 48 49 50
000
ASUS43 KDMX 280807
RWRIA

WEATHER ROUNDUP FOR IOWA
NATIONAL WEATHER SERVICE DES MOINES IA
300 AM CDT FRI AUG 28 2015

NOTE: "FAIR" INDICATES FEW OR NO CLOUDS BELOW 12,000 FEET WITH NO
SIGNIFICANT WEATHER AND/OR OBSTRUCTIONS TO VISIBILITY.

* - THESE STATIONS ARE NOT NWS STATIONS...THUS NOT UNDER NWS
QUALITY CONTROL.  THEY ALSO DO NOT REPORT WEATHER SUCH
AS PRECIPITATION OR FOG.

IAZ001>003-012>014-020>022-031>034-043>046-280900-
   NORTHWEST IOWA

CITY           SKY/WX    TMP DP  RH WIND       PRES   REMARKS
CARROLL *      LGT RAIN  63  63 100 SE7       30.01F
CHEROKEE *     RAIN      63  63 100 SE12      29.96F
DENISON *      LGT RAIN  64  63  94 SE12G18   29.94F
LE MARS *      LGT RAIN  64  64 100 E8G16     29.93F
ORANGE CITY *  RAIN      63  63 100 SE10      29.93F
SHELDON *      CLOUDY    63  63 100 SE14      29.94F
SIOUX CITY     HVY RAIN  66  63  90 E21G29    29.87F FOG
SPENCER        LGT RAIN  64  61  90 SE10      29.99F FOG
STORM LAKE *   LGT RAIN  63  63 100 SE8       29.99F
$$

IAZ055>058-069>071-079>083-090>094-280900-
   SOUTHWEST IOWA

CITY           SKY/WX    TMP DP  RH WIND       PRES   REMARKS
ATLANTIC *     LGT RAIN  64  64 100 E6        29.98F
AUDUBON *      RAIN      63  61  94 E3        30.02F
CLARINDA *     LGT RAIN  68  66  94 E7        29.99S
COUNCIL BLFS * LGT RAIN  66  66 100 E10       29.94F
CRESTON *      MOCLDY    64  61  88 S5        30.03R
HARLAN  *      LGT RAIN  64  64 100 E6        30.00F
LAMONI         CLOUDY    66  61  84 SE9       30.00S
RED OAK *      LGT RAIN  68  66  94 SE8       29.97S
SHENANDOAH *   CLOUDY    68  66  94 SE7       29.96R
$$

IAZ047>049-059>061-072>074-084-280900-
   CENTRAL IOWA

CITY           SKY/WX    TMP DP  RH WIND       PRES   REMARKS
AMES           CLOUDY    63  61  93 SE5       30.04F
ANKENY *       CLOUDY    66  61  82 SE5       30.03R
CHARITON *     CLOUDY    64  59  82 SE10G16   30.01F
DES MOINES     CLOUDY    66  59  78 SE7       30.02S
GRINNELL*      CLOUDY    61  59  94 NE3       30.07R
KNOXVILLE *    CLOUDY    64  59  82 SE12      30.00F
MARSHALLTOWN   LGT RAIN  62  60  93 E6        30.05F
PELLA *        CLOUDY    64  63  94 SE8       30.03F
PERRY *        LGT RAIN  64  63  94 CALM      30.04R
$$

IAZ004>006-015-016-023>025-035-036-280900-
   NORTH CENTRAL IOWA

CITY           SKY/WX    TMP DP  RH WIND       PRES   REMARKS
ALGONA *       MOCLDY    63  63 100 SE7       30.03S
CLARION *      PTCLDY    63  61  94 SE12      30.03S
ESTHERVILLE    CLOUDY    62  61  96 SE9       30.00F
FORT DODGE *   CLOUDY    63  59  88 SE6       30.02S
MASON CITY     LGT RAIN  62  61  96 S10       30.05F
FOREST CITY *    N/A     61  61 100 S9        30.04R
IOWA FALLS *     N/A     63  61  94 E6        30.06F
$$

IAZ007>011-017>019-026>030-037>042-050>054-066-280900-
   NORTHEAST IOWA

CITY           SKY/WX    TMP DP  RH WIND       PRES   REMARKS
CEDAR RAPIDS   CLOUDY    62  60  93 S8        30.05F
CHARLES CITY * CLOUDY    61  61 100 S5        30.10R
CLINTON *      CLOUDY    61  57  88 S5        30.12S
DECORAH *      MOCLDY    63  61  94 S6        30.08R
DUBUQUE        CLOUDY    62  58  86 S7        30.09S
MONTICELLO *   CLEAR     63  59  88 SE3       30.07F
OELWEIN *        N/A     63  59  88 CALM      30.11R
WATERLOO       CLOUDY    63  58  83 CALM      30.09R
$$

IAZ064-065-067-068-078-280900-
   EAST CENTRAL IOWA

CITY           SKY/WX    TMP DP  RH WIND       PRES   REMARKS
DAVENPORT      CLOUDY    63  58  83 SE6       30.09F
IOWA CITY      CLOUDY    61  58  90 SE6       30.07F
MT. PLEASANT * MOCLDY    63  57  82 SE6       30.08S
MUSCATINE *    CLEAR     61  57  88 CALM      30.08F
QUAD CITIES    CLOUDY    62  58  86 SE3       30.08F
$$

IAZ062-063-075>077-085>089-095>099-280900-
   SOUTHEAST IOWA

CITY           SKY/WX    TMP DP  RH WIND       PRES   REMARKS
BURLINGTON     PTCLDY    62  58  86 SE5       30.08F
FAIRFIELD *    PTCLDY    63  57  82 SE8       30.06S
FORT MADISON * CLEAR     61  57  88 SE3       30.08F
KEOKUK *       CLEAR     61  59  94 SE5       30.07S
OSKALOOSA *      N/A     61  57  88 CALM      30.06R
CENTERVILLE *  CLEAR     61  59  94 SE10      30.05F
OTTUMWA        CLOUDY    64  59  83 S10       30.04S
WASHINGTON *     N/A    N/A N/A N/A MISG        N/A
$$

ABBREVIATIONS USED IN REMARKS
   TC - TEMPERATURES IN CELSIUS
  WCI - WIND CHILL INDEX
   HX - HEAT INDEX
  VSB - VISIBILITY
$$



USA.gov is the U.S. government's official web portal to all federal, state and local government web resources and services.